#timestamp,LO_Frequency,Hit,StdDev 
1667674815.3,286047002.8,N
1667674835.1,286047000.4,N
1667674855.9,286047002.4,N
1667674875.7,286047002.1,N
1667674895.5,286047002.0,N
1667674915.4,286047000.6,N
1667674935.2,286047000.1,N
1667674955.1,286047001.2,N
1667674956.0,286047001.2,N
1667674975.8,286047000.5,N
1667674995.6,286047000.4,N
1667675015.5,286047000.0,N
1667675035.3,286047000.1,N
1667675055.2,286047000.6,N
1667675075.9,286047002.6,N
1667675095.7,286047000.7,N
1667675115.6,286047000.7,N
1667675135.4,286046998.2,N
1667675155.2,286046999.0,N
1667675175.1,286046996.5,Y
1667675176.0,286046996.5,P
1667675195.8,286046999.5,N
1667675215.7,286046999.6,N
1667675235.5,286046998.8,N
1667675255.3,286047001.2,N
1667675275.2,286047002.7,N
1667675295.0,286047001.5,N
1667675295.9,286047001.5,N
1667675315.7,286046999.7,N
1667675335.6,286047002.8,N
1667675355.4,286047002.3,N
1667675375.3,286047002.8,N
1667675395.1,286046999.8,N
1667675396.0,286046999.8,N
1667675415.8,286047002.1,N
1667675435.7,286047002.5,N
1667675455.5,286047002.2,N
1667675475.3,286047002.5,N
1667675495.2,286047000.0,N
1667675515.0,286046999.0,N
1667675515.9,286046999.0,N
1667675535.8,286046998.3,N
1667675555.6,286046998.6,N
1667675575.4,286047000.6,N
1667675595.3,286047000.5,N
1667675615.1,286047011.9,Y
1667675635.9,286047001.1,P
1667675655.7,286046996.8,P
1667675675.5,286046997.9,N
1667675695.4,286046999.6,N
1667675715.2,286046998.5,N
1667675735.0,286046998.4,N
1667675735.9,286046998.4,N
1667675755.8,286046998.7,N
1667675775.6,286047000.9,N
1667675795.5,286046999.7,N
1667675815.3,286047000.1,N
1667675835.1,286047002.7,N
1667675855.9,286047001.1,N
1667675875.7,286046996.5,N
1667675895.5,286047001.1,N
1667675915.4,286046998.4,N
1667675935.2,286047000.8,N
1667675955.1,286046999.9,N
1667675956.0,286046999.9,N
1667675975.8,286047000.3,N
1667675995.7,286047001.6,N
1667676015.5,286047001.7,N
1667676035.3,286047001.3,N
1667676055.2,286047001.3,N
1667676075.9,286047004.1,N
1667676095.7,286047003.3,N
1667676115.6,286047004.1,N
1667676135.4,286047003.8,N
1667676155.3,286047004.1,N
1667676175.1,286047003.2,N
1667676176.0,286047003.2,N
1667676195.8,286047001.7,N
1667676215.7,286047003.8,N
1667676235.5,286047003.9,N
1667676255.4,286047001.7,N
1667676275.2,286047003.7,N
1667676295.0,286047001.3,N
1667676295.9,286047001.3,N
1667676315.8,286047002.1,N
1667676335.6,286047001.6,N
1667676355.5,286047002.3,N
1667676375.3,286047001.9,N
1667676395.1,286047001.9,N
1667676415.9,286047002.0,N
1667676435.7,286047002.7,N
1667676455.5,286047002.4,N
1667676475.4,286047002.8,N
1667676495.2,286047000.3,N
1667676515.1,286047002.6,N
1667676516.0,286047002.6,N
1667676535.8,286046999.8,N
1667676555.6,286047002.7,N
1667676575.5,286047000.1,N
1667676595.3,286047000.5,N
1667676615.1,286047000.6,N
1667676635.9,286047000.4,N
1667676655.7,286046998.1,N
1667676675.6,286046998.1,N
1667676695.4,286047000.9,N
1667676715.2,286046998.2,N
1667676735.1,286047000.8,N
1667676736.0,286047000.8,N
1667676755.8,286047001.0,N
1667676775.7,286046998.2,N
1667676795.5,286046998.9,N
1667676815.3,286046998.6,N
1667676835.2,286046998.4,N
1667676855.0,286046999.1,N
1667676855.9,286046999.1,N
1667676875.8,286046997.1,N
1667676895.6,286046996.8,N
1667676915.4,286046997.0,N
1667676935.3,286046996.6,N
1667676955.1,286046997.4,N
1667676975.8,286046998.0,N
1667676995.7,286046995.3,N
1667677015.5,286046995.5,N
1667677035.4,286046997.4,N
1667677055.2,286046997.6,N
1667677075.0,286046994.9,N
1667677075.9,286046994.9,N
1667677095.8,286046995.4,N
1667677115.6,286046993.3,Y
1667677135.4,286046997.3,P
1667677155.3,286046996.6,P
1667677175.1,286046995.0,P
1667677195.9,286046997.7,N
1667677215.7,286046997.7,N
1667677235.5,286046997.1,N
1667677255.4,286046996.6,Y
1667677275.2,286047000.4,P
1667677295.1,286047000.8,N
1667677296.0,286047000.8,N
1667677315.8,286047000.6,N
1667677335.6,286047000.7,N
1667677355.5,286047000.1,N
1667677375.3,286047002.8,N
1667677395.1,286047001.1,N
1667677415.9,286047000.9,N
1667677435.7,286047000.5,N
1667677455.6,286047000.6,N
1667677475.4,286047000.8,N
1667677495.2,286046998.5,N
1667677515.1,286046998.1,N
1667677516.0,286046998.1,N
1667677535.8,286046999.4,N
1667677555.7,286046998.6,N
1667677575.5,286046998.4,N
1667677595.3,286046998.2,N
1667677615.2,286046998.5,N
1667677635.0,286047000.7,N
1667677635.9,286047000.7,N
1667677655.7,286046998.4,N
1667677675.6,286046998.4,N
1667677695.4,286046996.8,N
1667677715.3,286046996.5,N
1667677735.1,286046996.7,N
1667677736.0,286046996.7,N
1667677755.8,286046997.1,N
1667677775.7,286046999.6,N
1667677795.5,286046999.1,N
1667677815.3,286046998.1,N
1667677835.2,286046999.4,N
1667677855.0,286046999.2,N
1667677855.9,286046999.2,N
1667677875.8,286046999.6,N
1667677895.6,286046996.8,N
1667677915.4,286046996.6,N
1667677935.3,286046999.2,N
1667677955.1,286046998.5,N
1667677975.8,286046998.8,N
1667677995.7,286046998.9,N
1667678015.5,286046998.9,N
1667678035.4,286046998.9,N
1667678055.2,286046996.6,Y
1667678075.0,286047001.1,P
1667678075.9,286047001.1,N
1667678095.8,286047001.1,N
1667678115.6,286046998.6,N
1667678135.5,286047000.8,N
1667678155.3,286046998.1,N
1667678175.1,286046998.1,N
1667678195.9,286047000.8,N
1667678215.7,286047000.8,N
1667678235.5,286047000.3,N
1667678255.4,286047000.7,N
1667678275.2,286047000.6,N
1667678295.1,286047000.9,N
1667678296.0,286047000.9,N
1667678315.8,286047000.0,N
1667678335.6,286046999.9,N
1667678355.5,286047000.4,N
1667678375.3,286046998.3,N
1667678395.1,286047000.7,N
